Время (UTC), дата Ветер
(°,м/с) 
Видим.   Явления Облачность Т
(°С)
Тd
(°С)
f(%) Тe
(°С)
Pmin
(гПа)
dP
(гПа)
Po
(мм)
O2
(г/м3)
Тmin Tmax R s Состояние
почвы
00 01.03.13 280 (З) >10 км    5/0 средняя 
[Ac trans]
+0.6 -3.8 72 -2  1014.6  -0.5  720  290           
03 01.03.13 240 (ЮЗ) >10 км    3/0 средняя 
[Ac trans]
-2.6 -6.3 76 -5  1015.3  720  293  -2.6        замёрзшая 
06 01.03.13 270 (З) >10 км    1/0 средняя 
[Ac trans]
+4.3 -4.9 51 +2  1013.5  -0.4  719  286  -4.1         
09 01.03.13 000 (С) 84  0600 м    1/1 600 м средняя 
[Ac trans]
-6.4   1012  -0.6  719             
12 01.03.13 260 (З) 7-11{13}  >10 км    ясно 
+10.3 -7.2 28 +9  1009.8  -0.6  717  279           
15 01.03.13 280 (З) 5{13}  >10 км    1/0 средняя 
[Ac trans]
+6.9 -3.8 46 +5  1010.2  -0.2  717  282    +10.3       
18 01.03.13 260 (З) >10 км    1/0 средняя 
[Ac trans]
+4.5 -1.2 66 +2  1011.2  0.5  718  285           
21 01.03.13 260 (З) 11-15{15}  >10 км    ясно 
+2.3 -1.7 75 -2  1011.4  -0.3  717  287           
00 02.03.13 270 (З) 10-15{18}  >10 км    ясно 
+2.6 -1 77 -2  1012.2  0.8  718  287           
03 02.03.13 280 (З) >10 км    6/0 средняя 
[Ac trans]
+3 -2.1 69 -1  1012.2  -0.1  718  286  +2.1        влажная 
06 02.03.13 270 (З) 6{13}  >10 км    6/0 средняя, верхняя 
[Ac trans|Ci]
+4 -1.8 66 +1  1012.9  0.9  719  286           
09 02.03.13 260 (З) 8-11{16}  >10 км    8/5 1020 м средняя 
[Sc|Ac trans]
+8.3 -2 48 +6  1012.5  0.4  719  281           
12 02.03.13 280 (З) 8-12{15}  >10 км    8/3 600 м средняя, верхняя 
[Sc|Ac trans|Ci]
+10.2 -5.9 32 +8  1011.2  -1  718  280           
15 02.03.13 290 (З) 4{13}  >10 км    10/3 1000 м средняя 
[Sc|Ac und]
+6.7 -5.4 42 +5  1012.4  0.5  719  283    +10.6       
18 02.03.13 260 (З) >10 км    10/3 1000 м средняя 
[Sc|Ac und]
+3 -5.4 54 +2  1013.7  0.5  719  287           
21 02.03.13 180 (Ю) >10 км    6/0 средняя 
[Ac As]
+2.6 -5.2 56 +1  1012.6  -1.1  718  287           
00 03.03.13 230 (ЮЗ) >10 км    10/4 1000 м средняя 
[Sc|Ac und]
+3.4 -4.7 55 +3  1011.2  -1.1  718  286           
03 03.03.13 310 (СЗ) 10 км  слаб. ливневой дождь  10/8 200 м кучево-дожд., средняя 
[Cb cap|Ac und]
-0.2 -1.3 92 -4  1013.3  1.3  719  290  -0.2    0.0     
06 03.03.13 280 (З) 4000 м  слаб. ливневой снег  10/8 120 м кучево-дожд., средняя 
[Cb cap|Ac und]
-1.3 -1.8 96 -5  1017.1  3.3  721  292  -1.3         
09 03.03.13 260 (З) 7-10  10 км  {ливн. осадки}  9/9 480 м 
[Sc diur, vesp]
+0.7 -2 82 -3  1018.3  1.5  722  290           
12 03.03.13 270 (З) 7-11{13}  >10 км  {ливн. осадки}  8/8 1000 м 
+2.7 -5.2 56 -1  1017.4  -0.5  722  288           
15 03.03.13 290 (З) 4{12}  >10 км    1/0 средняя 
[Ac trans]
+1.5 -5.9 58 -1  1017.7  -0.1  722  290    +3.7  0.0     
18 03.03.13 180 (Ю) >10 км    ясно 
-1.9 -6.7 70 -4  1017.7  -0.6  721  293           
21 03.03.13 210 (ЮЗ) >10 км    ясно 
-2.1 -6.8 70 -3  1016.7  -1  721  293           
00 04.03.13 210 (ЮЗ) >10 км    ясно 
-2.1 -6.4 72 -2  1015.8  -0.8  720  293           
03 04.03.13 010 (С) >10 км    4/0 средняя 
[Ac trans]
-2 -6.2 73 -3  1014.6  -1.2  719  292  -3         
06 04.03.13 100 (В) >10 км    9/0 средняя 
[Ac trans]
+2 -3.9 65 +1  1013.3  -0.4  719  288           
09 04.03.13 130 (ЮВ) >10 км    10/0 средняя 
[Ac und]
+4.4 -6.5 45 +3  1011.1  -1.7  718  285           
12 04.03.13 180 (Ю) >10 км    10/0 средняя 
[Ac und]
+5.1 -5.3 47 +3  1009.5  -1.4  717  284           
18 04.03.13 250 (З) >10 км    9/0 средняя 
[Ac trans]
+0.9 -4 70 -1  1012.9  1.6  718  289           
21 04.03.13 290 (З) 5{10}  3000 м  слаб. ливневой снег  10/8 450 м кучево-дожд., средняя 
[Cb cap|Ac und]
-0.2 -2.9 82 -3  1014.4  1.2  719  290           
00 05.03.13 260 (З) >10 км  {ливн. осадки}  10/5 1000 м кучево-дожд., средняя 
[Cb calv|Ac und]
-1.2 -4.5 78 -4  1015.6  0.9  720  292           
03 05.03.13 260 (З) >10 км  в посл. час ливневой снег  10/8 300 м кучево-дожд., средняя 
[Cb calv|Ac und]
-2.3 -3.8 89 -6  1017.4  1.5  721  293  -2.3    0.7     
06 05.03.13 280 (З) 4000 м  слаб. ливневой снег  8/6 300 м кучево-дожд., средняя 
[Cb cap|Ac und]
-2.4 -5.1 82 -6  1019.9  2.3  723  294  -2.6         
09 05.03.13 290 (З) 7-10  10 км  слаб. ливневой снег  8/6 420 м кучево-дожд., средняя 
[Cb cap|Ac trans]
-1 -6.3 67 -5  1020.7  724  293           
12 05.03.13 290 (З) 8-13{13}  >10 км  {ливн. осадки}  8/5 600 м кучево-дожд., средняя 
[Cb calv|Ac trans]
-0.5 -9.6 50 -5  1021  0.4  724  293           
15 05.03.13 300 (СЗ) 6-10  >10 км    8/5 600 м кучево-дожд., средняя 
[Cb calv|Ac trans]
-2.5 -8.2 65 -6  1023.8  2.2  726  296    +0.2       
18 05.03.13 280 (З) 6-10{11}  >10 км    8/3 600 м кучево-дожд., средняя 
[Cb calv|Ac trans]
-4.3 -8.1 75 -9  1026.8  2.5  727  299           
21 05.03.13 310 (СЗ) 5{11}  3000 м  слаб. ливневой снег  10/8 210 м кучево-дожд., средняя 
[Cb cap|Ac und]
-4.7 -5.9 91 -9  1028.6  1.6  729  299           
00 06.03.13 320 (СЗ) 4000 м  слаб. ливневой снег  10/8 210 м кучево-дожд., средняя 
[Cb cap|Ac und]
-7.7 -9.6 86 -12  1031.5  2.1  730  304           
03 06.03.13 290 (З) >10 км  {ливн. осадки}  6/0 средняя 
[Ac trans]
-10.3 -14.9 69 -13  1034.3  2.1  732  308  -10.3       
06 06.03.13 260 (З) >10 км  {ливн. осадки}  ясно 
-5 -11.4 61 -9  1034.7  1.5  733  302  -10.8         
09 06.03.13 270 (З) >10 км    6/0 средняя 
[Ac trans]
-1.7 -8.8 58 -5  1034.1  0.1  733  298           
12 06.03.13 280 (З) >10 км    ясно 
+2 -12.5 33 -1  1032.3  -1  732  294           
15 06.03.13 310 (СЗ) >10 км    ясно 
+0.1 -13.1 36 -1  1032.7  732  296    +2       
18 06.03.13 170 (Ю) >10 км    ясно 
-2.3 -13.4 42 -2  1033.3  732  299           
21 06.03.13 210 (ЮЗ) >10 км    ясно 
-3.7 -12.8 49 -6  1032.5  -1  731  300           
00 07.03.13 220 (ЮЗ) >10 км    ясно 
-4.1 -12.4 52 -6  1031.4  -1.1  731  300           
03 07.03.13 180 (Ю) >10 км    ясно 
-3.8 -11.4 56 -6  1029.9  -1.3  730  299  -5        замёрзшая 
06 07.03.13 160 (Ю) >10 км    ясно 
+3.3 -12 32 +2  1028  -0.4  729  291           
09 07.03.13 160 (Ю) >10 км    ясно 
+9 -13.6 19 +8  1024.8  -2  728  285           
12 07.03.13 160 (Ю) >10 км    ясно 
+11.7 -14.8 14 +12  1021.4  -2.7  726  282           
15 07.03.13 150 (ЮВ) >10 км    ясно 
+8.6 -13.1 20 +9  1020.1  -1.8  725  284    +12.1       
18 07.03.13 170 (Ю) >10 км    ясно 
+3.2 -10.2 37 +2  1020.4  -0.7  724  289           
21 07.03.13 140 (ЮВ) >10 км    3/0 средняя 
[Ac trans]
+4.6 -9.9 34 +3  1018.5  -1.5  723  287           
00 08.03.13 190 (Ю) >10 км    3/0 средняя 
[Ac trans]
+4.6 -9.9 34 +3  1018.5  -1.4  722  287           
03 08.03.13 220 (ЮЗ) >10 км    9/0 средняя 
[Ac trans]
+6.3 -10.7 28 +6  1015.8  -0.8  721  285  +2        полностью
покрыта
пылью 
06 08.03.13 180 (Ю) >10 км    8/0 кучево-дожд. 
[Cb calv]
+11 -6.6 28 +11  1015.2  0.3  721  280           
09 08.03.13 300 (СЗ) >10 км    8/0 
+14.5 -12.5 14 +14  1013.9  -0.6  721  277           
12 08.03.13 300 (СЗ) >10 км    4/0 средняя 
[Ac trans]
+16 -10.2 16 +16  1011.7  -1.8  720  275           
15 08.03.13 320 (СЗ) >10 км    5/0 средняя 
[Ac trans]
+12.8 -6.9 25 +14  1012.1  -0.2  719  278    +16.1       
18 08.03.13 120 (ЮВ) >10 км    6/0 средняя 
[Ac trans]
+8.7 -4.4 39 +10  1013.2  0.4  720  281           
21 08.03.13 150 (ЮВ) >10 км    4/0 средняя 
[Ac trans]
+10.2 -5 34 +10  1012.2  -0.7  720  280           
00 09.03.13 060 (СВ) >10 км    6/0 средняя 
[Ac trans]
+3.6 -4.4 56 +2  1012.9  -0.6  719  286           
03 09.03.13 090 (В) >10 км    6/0 средняя 
[Ac trans]
+1.3 -4.4 66 1012.8  -0.5  718  288  +1.3        сухая 
06 09.03.13 120 (ЮВ) >10 км    10/0 средняя 
[Ac und]
+4.9 -3.9 53 +3  1012.8  0.6  719  285  +0.6         
09 09.03.13 130 (ЮВ) >10 км    5/0 средняя 
[Ac und]
+11.1 -4.7 33 +10  1011.4  -0.3  719  279           
12 09.03.13 090 (В) 6{10}  >10 км    9/0 средняя, верхняя 
[Ac As|Ci sp]
+11.1 -5.9 30 +10  1010.3  -0.9  718  278           
15 09.03.13 090 (В) >10 км    10/0 средняя, верхняя 
[Ac trans|Ci sp]
+6.4 -0.3 62 +4  1011  -0.1  718  283    +11.9       
18 09.03.13 120 (ЮВ) >10 км    8/0 средняя 
[Ac trans]
+2.6 -0.9 78 +1  1011.9  0.2  718  287           
21 09.03.13 140 (ЮВ) >10 км    10/0 средняя 
[Ac und]
+3.1 +0.9 85 +1  1010.9  -0.9  717  286           
00 10.03.13 160 (Ю) >10 км  {ливн. осадки}  10/4 1000 м кучево-дожд., средняя 
[Cb calv|Ac und]
+2.8 +1.9 94 +1  1010.8  -0.2  717  286           
03 10.03.13 180 (Ю) >10 км  слаб. ливневой дождь  10/8 800 м кучево-дожд., средняя 
[Cb cap|Ac und]
+3.8 +2.1 89 +3  1010.1  -0.4  717  284  +2.3    0.7    влажная 
06 10.03.13 190 (Ю) 10 км  {ливн. осадки}  10/5 900 м кучево-дожд., средняя 
[Cb cap|Ac und]
+4.8 +3.6 92 +4  1010.4  0.4  717  283           
09 10.03.13 160 (Ю) >10 км    9/4 1000 м кучево-дожд., средняя 
[Cb cap|Ac trans]
+10.1 +5.8 75 +10  1008.6  -0.6  717  277           
12 10.03.13 280 (З) >10 км    8/4 1000 м кучево-дожд., средняя 
[Cb cap|Ac trans]
+13.1 +4.1 54 +13  1006.9  -1.2  716  275           
15 10.03.13 350 (С) >10 км    9/5 1080 м средняя 
[Sc diur, vesp|Ac trans]
+10.9 +5.3 68 +12  1007.6  0.4  716  277    +13.9  0.6     
18 10.03.13 350 (С) >10 км  {ливн. осадки}  10/6 1000 м средняя 
[Sc diur, vesp|Ac und]
+8.5 +6.4 87 +10  1008.9  0.8  717  279           
21 10.03.13 090 (В) 10 км  в посл. час ливневой дождь  8/3 1000 м кучево-дожд., средняя 
[Cb cap|Ac trans]
+6.7 +5.8 94 +8  1008  -1.2  716  280           
00 11.03.13 060 (СВ) >10 км  {ливн. осадки}  ясно 
+4.5 +3.9 96 +5  1007.5  -0.9  715  283           
03 11.03.13 170 (Ю) >10 км  слаб. дождь  8/4 1000 м средняя 
[Sc|Ac trans]
+5.6 +4.8 95 +5  1006.8  -0.4  715  281  +4.2    0.4     
06 11.03.13 тихо ()   >10 км  в посл. час дождь  9/6 1000 м средняя 
[Sc|Ac trans]
+9.2 +7 86 +9  1005.7  -0.4  714  277           
09 11.03.13 230 (ЮЗ) 4800 м  слаб. ливневой дождь  10/6 600 м кучево-дожд., средняя 
[Cb cap|Ac und]
+9.2 +8 92 +9  1006.4  -0.4  715  277           
12 11.03.13 120 (ЮВ) >10 км  {ливн. осадки}  8/3 1000 м кучево-дожд., средняя 
[Cb calv|Ac trans]
+12.4 +8.7 78 +12  1004.4  -1.4  714  274           
15 11.03.13 250 (З) 2{12}  >10 км    8/4 1000 м кучево-дожд., средняя 
[Cb calv|Ac trans]
+9.6 +6.3 80 +10  1005  0.1  714  277    +12.8     
18 11.03.13 210 (ЮЗ) >10 км  {ливн. осадки}  9/0 средняя 
[Ac trans]
+9.8 +5.6 75 +9  1004.6  -0.4  714  277           
21 11.03.13 180 (Ю) >10 км    8/0 средняя 
[Ac trans]
+8.5 +4.3 75 +8  1003.5  -1.2  713  278           
00 12.03.13 140 (ЮВ) >10 км    8/0 средняя 
[Ac trans]
+9.2 +1.9 60 +9  1002.1  -1.3  712  277           
03 12.03.13 150 (ЮВ) >10 км  в посл. час ливневой дождь  10/4 1000 м кучево-дожд., средняя 
[Cb calv|Ac und]
+9.8 +1.1 55 +11  1001.1  -0.8  711  276  +7.4    0.0     
06 12.03.13 240 (ЮЗ) >10 км  в посл. час ливневой дождь  10/6 1200 м кучево-дожд., средняя 
[Cb calv|Ac und]
+9.2 +6.1 81 +10  1002.5  1.2  712  277           
09 12.03.13 250 (З) >10 км    9/4 1000 м кучево-дожд., средняя 
[Cb calv|Ac trans]
+14.6 +5.9 56 +15  1000.9  -0.6  711  270           
12 12.03.13 310 (СЗ) 4{11}  >10 км    10/6 930 м кучево-дожд., средняя 
[Cb cap|Ac und]
+13.3 +8.8 74 +14  1001.4  0.3  712  272           
15 12.03.13 300 (СЗ) >10 км  {ливн. осадки}  10/3 600 м кучево-дожд., средняя 
[Cb cap|Ac und]
+10.4 +8.7 89 +12  1003.2  1.2  713  275    +15.7       
18 12.03.13 140 (ЮВ) 0400 м  туман{ливн. осадки}  10/6 210 м средняя 
[St|Ac und]
+9.3 +8.9 97 +10  1004.1  0.7  713  276           
21 12.03.13 120 (ЮВ) >10 км  {туман}  10/8 600 м средняя 
[Sc diur, vesp|Ac und]
+8.6 +7.9 95 +9  1003.4  -0.8  713  277           
00 13.03.13 110 (В) 4000 м  дымка{дождь}  10/10 360 м 
[St]
+8.3 +7.9 97 +8  1001.6  -1.8  711  277           
03 13.03.13 140 (ЮВ) 0100 м  слаб. дождь{туман}  ?/?  
+7.9 +7.5 97 +6  1001  -0.7  711  277  +7.7      влажная 
06 13.03.13 200 (Ю) 4000 м  слаб. дождь  10/10 270 м 
[Ns]
+7.5 +7.2 98 +6  1002.4  1.4  712  278  +7.5         
09 13.03.13 260 (З) 8-12  10 км  слаб. дождь  10/10 330 м 
[Ns]
+8 +6.8 92 +5  1004.4  1.9  713  278           
12 13.03.13 250 (З) 6{12}  >10 км  {ливн. осадки, дождь}  10/8 500 м кучево-дожд., средняя 
[Cb calv|Ac und]
+10 +7.6 85 +8  1005.5  1.4  714  276           
15 13.03.13 290 (З) 6{14}  >10 км    8/4 600 м кучево-дожд., средняя, верхняя 
[Cb calv|Ac trans|Ci fib]
+8.8 +6.8 87 +7  1007  1.2  715  278    +10.5  10     
18 13.03.13 300 (СЗ) 4{11}  >10 км    8/3 600 м кучево-дожд., средняя 
[Cb calv|Ac trans]
+7.7 +6.5 92 +6  1009.5  2.1  717  280           
21 13.03.13 300 (СЗ) 10 км  слаб. ливневой дождь  10/8 300 м кучево-дожд., средняя 
[Cb calv|Ac und]
+7.5 +5.9 90 +6  1010.8  1.1  718  280           
00 14.03.13 190 (Ю) 10 км  слаб. ливневой дождь  10/6 480 м кучево-дожд., средняя 
[Cb calv|Ac und]
+6.3 +5.8 97 +7  1012.1  719  282           
03 14.03.13 150 (ЮВ) 1000 м  дымка{ливн. осадки}  10/10 100 м 
[St]
+6.1 +5.6 97 +5  1012.8  0.6  719  282  +5.9       
06 14.03.13 140 (ЮВ) 4000 м  дымка{ливн. осадки, туман}  8/4 600 м средняя 
[Sc|Ac trans]
+7.5 +6.8 95 +7  1014.4  1.8  720  281           
09 14.03.13 110 (В) >10 км    6/3 600 м средняя 
[Cu hum|Ac trans]
+12.9 +5.9 62 +13  1013.7  0.3  721  276           
12 14.03.13 070 (В) >10 км    5/5 600 м 
[Cu hum]
+15.4 +4.4 48 +16  1013  -0.3  720  274           
15 14.03.13 100 (В) >10 км    8/0 средняя, верхняя 
[Ac trans|Ci fib]
+11.6 +5.8 68 +11  1013.9  0.1  721  278    +15.5       
18 14.03.13 110 (В) >10 км    8/0 средняя 
[Ac trans]
+9.8 +5.1 73 +9  1014.5  0.3  721  279           
21 14.03.13 120 (ЮВ) >10 км    5/0 средняя 
[Ac trans]
+8.6 +5.8 83 +7  1014.2  -0.6  720  280           
00 15.03.13 110 (В) >10 км    8/0 средняя 
[Ac trans]
+8.8 +2.7 66 +7  1013.3  -0.8  720  280           
03 15.03.13 110 (В) >10 км    9/0 средняя 
[Ac trans]
+8.6 +2.5 66 +7  1011.2  -2  718  280  +8        влажная 
06 15.03.13 110 (В) 9-13{13}  >10 км    10/0 средняя 
[Ac und]
+11.1 +3.1 58 +9  1009.7  -0.9  718  277           
09 15.03.13 130 (ЮВ) 9-14{14}  >10 км    10/0 средняя 
[Ac und]
+13.4 +4.8 56 +12  1007.5  -1.7  716  274           
12 15.03.13 130 (ЮВ) 7{14}  >10 км    10/0 средняя 
[Ac und]
+14 +4.9 54 +13  1006.5  -0.8  716  273           
15 15.03.13 140 (ЮВ) 9-12  >10 км    10/0 средняя 
[Ac und]
+13 +4.6 57 +11  1005.4  -1.2  715  274    +14.7       
18 15.03.13 120 (ЮВ) 6{12}  >10 км    10/0 средняя 
[Ac und]
+12.1 +4.7 61 +11  1005.4  -0.2  715  275           
21 15.03.13 130 (ЮВ) >10 км    10/0 средняя 
[Ac und]
+15.4 +3 43 +15  1003.9  -0.8  714  272           
00 16.03.13 110 (В) >10 км    10/0 средняя 
[Ac und]
+14.3 +2.9 46 +14  1000.8  -3.1  712  272    -0.9       
03 16.03.13 300 (СЗ) >10 км    10/0 средняя 
[Ac und]
+13.4 +4.6 55 +13  1001.8  0.7  712  273  +11.7        влажная 
06 16.03.13 310 (СЗ) >10 км    10/0 средняя 
[Ac und]
+13.8 +5.2 56 +13  1002.6  0.9  713  273           
09 16.03.13 300 (СЗ) 6-10{11}  >10 км    10/0 средняя 
[Ac und]
+12.8 +6.8 67 +12  1003.4  0.5  713  273           
12 16.03.13 320 (СЗ) 6-10{11}  >10 км    10/0 средняя 
[Ac und]
+13.3 +5.9 61 +12  1006  2.6  715  274           
15 16.03.13 310 (СЗ) >10 км    10/6 700 м кучево-дожд., средняя 
[Cb cap|Ac und]
+11 +6.8 75 +10  1008.6  717  276    +13.8       
18 16.03.13 280 (З) 10 км  слаб. ливневой дождь  10/6 1050 м кучево-дожд., средняя 
[Cb cap|Ac und]
+8.5 +6.4 87 +7  1010.5  1.3  718  279           
21 16.03.13 280 (З) >10 км  {ливн. осадки}  10/6 1000 м кучево-дожд., средняя 
[Cb cap|Ac und]
+8.3 +5.6 83 +8  1009.7  -0.8  717  279           
00 17.03.13 250 (З) >10 км  слаб. ливневой дождь  10/6 270 м кучево-дожд., средняя 
[Cb cap|Ac und]
+7.3 +6.3 93 +7  1009.6  -0.3  717  280           
03 17.03.13 320 (СЗ) >10 км  слаб. ливневой дождь  10/6 100 м кучево-дожд., средняя 
[Cb cap|Ac und]
+7.2 +6.6 96 +7  1009.7  0.1  717  280  +7.2       
06 17.03.13 020 (С) 10 км  слаб. ливневой дождь  10/8 150 м кучево-дожд., средняя 
[Cb cap|Ac und]
+7.4 +7 97 +8  1009.4  -0.2  717  280  +7.1         
09 17.03.13 330 (СЗ) 3000 м  дымка{ливн. осадки}  10/10 100 м 
[St]
+5.6 +5.2 97 +5    0.1  717  282           
12 17.03.13 330 (СЗ) 0800 м  слаб. морось{ливн. осадки}  ?/?  
+4.7 +4.3 97 +3  1009.4  -0.7  716  283           
15 17.03.13 320 (СЗ) 2000 м  слаб. морось{туман}  10/10 50 м 
[St]
+4.4 +4 97 +2  1010.2  0.7  717  284    +7.5     
18 17.03.13 330 (СЗ) 3000 м  слаб. дождь{морось}  10/10 100 м 
[Frnb|Ns]
+3.8 +3.4 97 +1  1011.4  718  285           
21 17.03.13 300 (СЗ) 4000 м  слаб. дождь  10/10 120 м 
[Frnb|Ns]
+0.9 +0.4 96 -2  1012.8  0.8  718  288           
00 18.03.13 280 (З) 0700 м  снег{дождь}  ?/?  
-0.2 -0.6 97 -3  1014.5  1.4  719  290           
03 18.03.13 280 (З) 1500 м  снег{туман}  10/10 100 м 
[Frnb|Ns]
-1.1 -1.4 98 -5  1016.7  1.9  721  292  -1.1       
06 18.03.13 280 (З) 1200 м  снег  10/10 180 м 
[Ns]
-1.1 -1.1 100 -5  1018.7  1.9  722  292  -1.2         
09 18.03.13 270 (З) 8-12  10 км  {снег}  10/10 330 м 
[St]
-1.9 -2.4 96 -7  1019.8  0.8  723  293           
12 18.03.13 270 (З) 9-13  >10 км  позёмок{снег}  8/8 600 м 
[Sc]
-1 -4.4 78 -6  1020.4  0.7  723  293           
15 18.03.13 270 (З) >10 км  позёмок  8/5 600 м верхняя 
[Sc|Ci fib]
-1.3 -5.9 71 -6  1021.1  0.6  724  294    -0.7  0.9     
18 18.03.13 280 (З) 7-11{13}  >10 км    3/0 средняя 
[Ac trans]
-2.4 -7 71 -7  1021.7  0.3  724  295           
21 18.03.13 280 (З) 5{12}  >10 км    3/0 средняя 
[Ac trans]
-4 -7.2 78 -8  1022.3  0.3  724  297           
00 19.03.13 250 (З) >10 км    ясно 
-6.5 -9.6 78 -10  1022.2  -0.6  724  300           
03 19.03.13 220 (ЮЗ) >10 км    5/0 верхняя 
[Ci fib]
-7.2 -9.9 81 -10  1021.6  -0.7  723  300  -8.3      сухой снег
50-90% 
06 19.03.13 150 (ЮВ) >10 км    6/0 средняя 
[Ac trans]
-0.1 -6.6 62 -1  1019.3  -0.8  723  292           
09 19.03.13 130 (ЮВ) >10 км    9/0 средняя 
[Ac trans]
+2 -4.8 61 1017  -1.7  721  289           
12 19.03.13 120 (ЮВ) >10 км    8/0 средняя 
[Ac trans]
+4.2 -1.8 65 +2  1014.7  -1.7  720  286           
15 19.03.13 130 (ЮВ) >10 км    9/0 средняя, верхняя 
[Ac trans|Ci fib]
+3.4 -1.1 72 1013.7  -1.2  719  286    +4.5       
18 19.03.13 140 (ЮВ) 7{10}  >10 км    10/0 средняя 
[Ac und]
+1.8 -1.5 79 -2  1013.9  0.1  719  288           
21 19.03.13 140 (ЮВ) 5{11}  >10 км    10/0 средняя 
[Ac und]
+1.8 -1.5 79 -1  1012.9  -1  719  288           
00 20.03.13 160 (Ю) >10 км    10/0 средняя 
[Ac und]
+2.3 -1.7 75 -1  1012.5  -0.3  718  287           
03 20.03.13 150 (ЮВ) >10 км    10/0 средняя 
[Ac und]
+1.7 -1.5 79 -1  1012.7  718  288  +1.3      мокрый или
старый снег
10-40% 
06 20.03.13 130 (ЮВ) >10 км  в посл. час дождь  10/3 1000 м средняя 
[Sc|Ac und]
+5.1 -0.1 69 +5  1012.2  0.2  719  284           
09 20.03.13 120 (ЮВ) >10 км    10/0 средняя, верхняя 
[Ac As|Ci]
+12.7 +1.6 47 +12  1010.6  0.1  718  276           
12 20.03.13 310 (СЗ) 6{11}  >10 км    10/3 1000 м средняя 
[Sc|Ac und]
+13.6 +3.1 49 +13  1011.1  0.7  719  275           
15 20.03.13 230 (ЮЗ) >10 км  в посл. час дождь  10/3 600 м средняя 
[Sc|Ac und]
+7.5 +4.4 81 +6  1014.5  2.1  720  282    +15.5  0.0     
18 20.03.13 260 (З) >10 км  слаб. ливневой дождь  10/5 1000 м кучево-дожд., средняя 
[Cb cap|Ac und]
+7.5 +3.6 76 +6  1015.6  721  282           
21 20.03.13 280 (З) 5{10}  >10 км  {ливн. осадки}  10/3 1000 м кучево-дожд., средняя 
[Cb cap|Ac und]
+6.1 +3.9 86 +4  1016.8  0.9  722  284           
00 21.03.13 280 (З) >10 км    8/8 1000 м 
[Sc]
+4.4 -0.6 70 +3  1017.7  0.4  722  286           
03 21.03.13 250 (З) >10 км    8/0 средняя 
[Ac trans]
+0.9 -4.1 69 -1  1019.1  0.7  723  291  +0.6    0.0     
06 21.03.13 240 (ЮЗ) >10 км    5/0 средняя, верхняя 
[Ac trans|Ci fib]
+8.8 +0.5 56 +8  1018.6  724  282           
09 21.03.13 290 (З) >10 км    6/4 600 м средняя 
[Cu hum|Ac trans]
+11.5 -2.8 37 +11  1017.4  723  280           
12 21.03.13 010 (С) >10 км    5/3 600 м верхняя 
[Cu hum|Ci fib]
+12.7 -4.6 30 +13  1016.6  -0.6  723  279           
15 21.03.13 010 (С) >10 км    6/0 средняя, верхняя 
[Ac trans|Ci fib]
+10.5 -3.3 38 +11  1016.7  -0.3  722  281    +13.1       
18 21.03.13 090 (В) >10 км    5/0 средняя, верхняя 
[Ac trans|Ci fib]
+5.1 -0.4 68 +4  1017.9  0.2  723  286           
21 21.03.13 110 (В) >10 км    10/0 средняя, верхняя 
[Ac trans|Ci fib]
+4.7 +0.8 76 +4  1016.1  -1.8  721  285           
00 22.03.13 100 (В) >10 км    4/0 верхняя 
[Ci fib]
+5.1 +2.1 81 +3  1014.7  -1.2  720  285           
03 22.03.13 110 (В) >10 км    8/0 средняя, верхняя 
[Ac trans|Ci fib]
+6.3 +2.3 76 +4  1012.7  -1.7  719  283  +4.2         
06 22.03.13 130 (ЮВ) 8-11{11}  >10 км    9/0 средняя 
[Ac trans]
+10.5 +2.9 59 +9  1011.2  -0.7  719  278           
09 22.03.13 130 (ЮВ) 11-14{16}  >10 км    9/0 средняя 
[Ac trans]
+13.3 +2.5 48 +11  1008.4  -2.2  717  275           
12 22.03.13 110 (В) 10-15{15}  >10 км    10/0 средняя 
[Ac und]
+13.2 +2.2 47 +11  1005.8  -2.4  715  274           
15 22.03.13 110 (В) 8-10  >10 км    10/0 средняя 
[Ac und]
+11.2 +1.6 52 +9  1004.2  -1.8  714  276    +14.2       
18 22.03.13 100 (В) 8-10{12}  >10 км    10/0 средняя 
[Ac und]
+8.5 +1.4 61 +6  1003.4  -1.3  713  278           
21 22.03.13 110 (В) 7{13}  >10 км    10/0 средняя 
[Ac und]
+5.2 +1.6 77 +2  1001.1  -2.8  711  281           
00 23.03.13 110 (В) 7{13}  >10 км    10/6 600 м средняя 
[Sc|Ac und]
+3 +1.9 92 997.8  -3.5  708  282           
03 23.03.13 120 (ЮВ) 1100 м  дымка  10/10 50 м 
[St]
+2.8 +2.3 97 994.9  -2.7  706  281  +2.7         
06 23.03.13 120 (ЮВ) 2000 м  дымка{туман}  10/10 120 м 
[St]
+3.3 +3 98 993.4  -1.3  705  280           
09 23.03.13 130 (ЮВ) >10 км    10/10 210 м 
[St]
+6.3 +3.5 82 +5  992.1  -1.6  704  277           
12 23.03.13 290 (З) 8-13{13}  >10 км    10/8 630 м средняя 
[Sc|Ac und]
+9.2 +3.9 69 +7  994.2  2.6  706  275           
15 23.03.13 290 (З) >10 км  {ливн. осадки}  10/8 600 м кучево-дожд., средняя 
[Cb calv|Ac und]
+6.8 +4.6 86 +4  997.9  709  278    +9.5  0.0     
18 23.03.13 280 (З) 3{11}  >10 км  {ливн. осадки}  10/8 1000 м кучево-дожд., средняя 
[Cb calv|Ac und]
+5.8 +0.6 69 +5  1000.9  2.5  711  280           
21 23.03.13 280 (З) 7-10{12}  >10 км    9/3 1000 м кучево-дожд., средняя 
[Cb calv|Ac trans]
+4.2 -1.8 65 +1  1002.2  0.9  711  282           
00 24.03.13 270 (З) 3{11}  >10 км    10/4 1000 м кучево-дожд., средняя 
[Cb calv|Ac und]
+2.2   1003.8  1.1  712             
03 24.03.13 250 (З) >10 км    9/4 1000 м кучево-дожд., средняя 
[Cb calv|Ac und]
+1 -1.9 81 -1  1005.7  1.6  713  286  +0.1        сухая 
06 24.03.13 260 (З) 9-13{13}  >10 км    10/8 800 м кучево-дожд., средняя 
[Cb calv|Ac und]
+2.1 -1.6 76 -2  1008.4  2.8  715  286           
09 24.03.13 260 (З) 9-13{18}  >10 км    8/5 600 м средняя 
[Sc diur, vesp|Ac trans]
+5.1 -1.6 62 +2  1010.3  2.4  717  284           
12 24.03.13 280 (З) 9-15{17}  >10 км    8/5 600 м средняя 
[Sc diur, vesp|Ac trans]
+6.8 -1.6 55 +4  1010.8  0.7  718  282           
15 24.03.13 280 (З) 13-21  >10 км    3/3 600 м средняя 
[Sc|Ac trans]
+3.1 -2.8 65 -2  1013.1  1.4  719  287    +6.8       
18 24.03.13 280 (З) 12-19{21}  >10 км    3/0 средняя 
[Ac lent]
+0.9 -4.9 65 -4  1015.9  2.2  720  290           
21 24.03.13 270 (З) 10-14{21}  >10 км    ясно 
-0.3 -5  1016.7  0.6  721  291           
00 25.03.13 290 (З) 4{17}  >10 км  слаб. ливневой снег  6/6 800 м кучево-дожд. 
[Cb cap]
-2.5 -4.1 89 -5  1017.4  0.2  721  294           
03 25.03.13 260 (З) >10 км  в посл. час ливневой снег  10/6 300 м кучево-дожд., средняя 
[Cb cap|Ac und]
-3.2 -5.5 84 -7  1017.8  0.2  721  295  -3.2    0.0     
06 25.03.13 250 (З) 1500 м  снег{ливн. осадки}  10/10 120 м 
[Frnb|Ns]
-3.1 -5 87 -6  1018.7  0.9  722  295  -3.5         
09 25.03.13 270 (З) 8-12  10 км  {снег}  10/8 480 м средняя 
[Sc|Ac und]
-1.4 -4.5 79 -6  1017.8  -0.5  722  293           
12 25.03.13 260 (З) 7-10  10 км  слаб. крупа{ливн. осадки, снег}  10/6 400 м кучево-дожд., средняя 
[Cb cap|Ac und]
-0.8 -2.6 88 -5  1017.2  -0.5  721  292           
15 25.03.13 260 (З) 4000 м  слаб. крупа{ливн. осадки}  10/8 300 м кучево-дожд., средняя 
[Cb cap|Ac und]
-0.4 -1.3 94 -3  1017.2  0.1  721  291    -0.3  0.8     
18 25.03.13 300 (СЗ) 10 км  слаб. ливневой снег  10/8 450 м кучево-дожд., средняя 
[Cb cap|Ac und]
-1.5 -3.8 84 -3  1019  1.4  722  293           
21 25.03.13 280 (З) >10 км  {ливн. осадки}  10/6 720 м средняя 
[Sc diur, vesp|Ac und]
-2.7 -7.6 69 -6  1018.5  -0.7  722  294           
00 26.03.13 280 (З) >10 км    9/6 840 м кучево-дожд., средняя 
[Cb calv|Ac trans]
-3.7 -6.6 80 -5  1017.5  -1.1  721  295           
03 26.03.13 250 (З) >10 км    10/0 средняя, верхняя 
[Ac trans|Ci fib]
-5.6 -8.6 79 -7  1017.2  -0.7  720  297  -5.7    0.3    замёрзшая 
06 26.03.13 130 (ЮВ) >10 км    10/0 средняя 
[Ac und]
-2.6 -6.3 76 -5  1016.1  -0.3  720  294           
09 26.03.13 110 (В) >10 км    10/0 средняя 
[Ac und]
+3.4 -1.3 71 +2  1013.7  -1.1  719  286           
12 26.03.13 140 (ЮВ) >10 км    10/0 средняя 
[Ac und]
+5.5 -1.2 62 +3  1010.9  -2.3  718  283           
15 26.03.13 100 (В) >10 км    10/3 1000 м средняя 
[Sc|Ac und]
+4.8 +0.4 73 +4  1010.3  -0.7  717  284          замёрзшая 
18 26.03.13 130 (ЮВ) >10 км  в посл. час ливневой дождь  10/3 1000 м кучево-дожд., средняя 
[Cb cap|Ac und]
+3.7 +1.4 85 +2  1010.7  0.2  717  285           
21 26.03.13 130 (ЮВ) >10 км    10/5 1000 м кучево-дожд., средняя 
[Cb calv|Ac und]
+3.6 +2.6 93 +1  1009.3  -1.3  716  284           
00 27.03.13 180 (Ю) >10 км  слаб. ливневой дождь  10/5 1000 м кучево-дожд., средняя 
[Cb cap|Ac und]
+4.2 +2.7 90 +4  1008.8  -0.4  716  284           
03 27.03.13 150 (ЮВ) >10 км  в посл. час ливневой дождь  10/4 600 м кучево-дожд., средняя 
[Cb cap|Ac und]
+4.6 +3.1 90 +3  1007.2  -1.4  715  283  +3       
06 27.03.13 110 (В) >10 км  {ливн. осадки}  10/4 1000 м кучево-дожд., средняя 
[Cb calv|Ac und]
+6.9 +4.4 84 +8  1006.5  -0.3  715  280           
09 27.03.13 050 (СВ) >10 км    9/3 1000 м кучево-дожд., средняя 
[Cb calv|Ac trans]
+10.8 +5.6 70 +10  1005.8  0.1  715  276           
12 27.03.13 080 (В) >10 км    10/4 1000 м кучево-дожд., средняя 
[Cb calv|Ac und]
+11.3 +5.3 67 +10  1005.7  715  276           
15 27.03.13 140 (ЮВ) >10 км    10/4 1000 м кучево-дожд., средняя 
[Cb calv|Ac und]
+7.8 +5 82 +8  1007.6  1.2  716  279    +13.6       
18 27.03.13 120 (ЮВ) >10 км  в посл. час ливневой дождь  10/5 1000 м кучево-дожд., средняя 
[Cb calv|Ac und]
+5.3 +3.9 91 +4  1009.9  1.7  717  283           
21 27.03.13 210 (ЮЗ) >10 км    10/3 1000 м кучево-дожд., средняя 
[Cb calv|Ac und]
+5.8 +4.3 90 +7  1010.4  0.5  717  282           
00 28.03.13 тихо ()   >10 км    10/4 1000 м кучево-дожд., средняя 
[Cb calv|Ac und]
+5.8 +4.4 91 +6  1010.3  717  282           
03 28.03.13 210 (ЮЗ) 10 км  слаб. ливневой дождь  10/8 1080 м кучево-дожд., средняя 
[Cb cap|Ac und]
+5.5 +4.6 94 +4  1010.5  -0.1  717  283  +4    0.0    влажная 
06 28.03.13 170 (Ю) >10 км  в посл. час ливневой дождь  8/5 600 м кучево-дожд., средняя 
[Cb calv|Ac trans]
+9.8 +8.5 92 +9  1010.2  0.6  718  278           
09 28.03.13 280 (З) 10 км    9/9 540 м кучево-дожд. 
[Cb calv]
+10.6 +8 84 +9  1011.1  0.9  719  277           
12 28.03.13 290 (З) 7-11  >10 км  {ливн. осадки}  10/8 400 м кучево-дожд., средняя 
[Cb calv|Ac und]
+8.2 +5.7 84 +6  1012.6  719  280           
15 28.03.13 120 (ЮВ) 98  4900 м  в посл. час ливневой дождь  1/0 кучево-дожд., средняя 
[Cb calv|Ac und]
+4 +3 93 -7  1014.6  1.1           
18 28.03.13 300 (СЗ) 3{12}  10 км  слаб. ливневой снег  10/8 120 м кучево-дожд., средняя 
[Cb cap|Ac und]
+1.5 +0.7 94 1017.5  2.2  722  289           
21 28.03.13 310 (СЗ) 10 км  слаб. ливневой снег  10/8 120 м кучево-дожд., средняя 
[Cb cap|Ac und]
-0.9 -1.3 97 -3  1019  0.9  722  292           
00 29.03.13 320 (СЗ) 0100 м  туман{ливн. осадки} [диам. гололёда 0 мм]  ?/?  
-2 -2.3 98 -4  1020  0.7  723  294           
03 29.03.13 320 (СЗ) 0200 м  туман  ?/?  
-2.5 -2.9 97 -5  1021.8  1.6  724  295  -2.5    мокрый или
старый снег
50-90% 
06 29.03.13 320 (СЗ) 0900 м  слаб. крупа{ливн. осадки, туман} [диам. сложн. отлож. 5 мм]  ?/?  
-1.8 -2.2 97 -4  1023.6  1.8  726  294  -2.7         
09 29.03.13 340 (С) 10 км  слаб. ливневой снег [диам. сложн. отлож. 4 мм]  10/6 210 м кучево-дожд., средняя 
[Cb cap|Ac und]
-1.6 -2.3 95 -4  1025  1.3  727  295           
15 29.03.13 040 (СВ) 10 км    10/10 240 м 
[St]
-1.8 -3 92 -4  1027.5  1.1  728  296    -0.7  0.3     
18 29.03.13 060 (СВ) 3000 м  снег [диам. сложн. отлож. 3 мм]  10/10 120 м 
[Ns]
-2.4 -2.8 97 -4  1028.7  1.1  729  297           
21 29.03.13 090 (В) 4000 м  слаб. снег [диам. сложн. отлож. 3 мм]  10/10 150 м 
[Frnb|Ns]
-2.4 -2.9 96 -4  1028.6  0.1  729  297           
00 30.03.13 100 (В) 4000 м  слаб. снег [диам. сложн. отлож. 3 мм]  10/10 120 м 
[Ns]
-2.2 -2.6 97 -5  1028.4  -0.2  729  296           
03 30.03.13 100 (В) 10 км  {снег}  10/10 200 м 
[St]
-2 -2.7 95 -5  1028.6  0.3  729  296  -2.5    0.9     
06 30.03.13 120 (ЮВ) 10 км  {снег}  10/10 180 м 
[St]
-0.8 -1.8 93 -4  1028.9  0.5  729  295           
09 30.03.13 120 (ЮВ) >10 км    10/10 300 м 
[St]
+0.9 -1 87 -2  1027.8  -0.7  729  293           
12 30.03.13 130 (ЮВ) 8-11{12}  >10 км    10/10 420 м 
[St]
+2.6 -0.6 79 -1  1025.2  -2.1  727  290           
15 30.03.13 130 (ЮВ) >10 км    8/8 480 м 
[Sc]
+2.3 -0.7 80 -1  1025.1  -0.2  727  291    +3.2       
18 30.03.13 130 (ЮВ) 7-10{13}  >10 км    5/5 480 м 
[Sc]
-0.1 -1.3 92 -4  1025.1  -0.4  727  293           
21 30.03.13 130 (ЮВ) 7-10{11}  >10 км    ясно 
+0.6 -1.6 85 -3  1023.5  -1.4  726  292           
00 31.03.13 150 (ЮВ) 7{12}  >10 км    4/0 средняя 
[Ac trans]
+0.9 -1.3 85 -3  1022.2  -1.2  725  291           
03 31.03.13 140 (ЮВ) >10 км    8/0 средняя 
[Ac trans]
+1 -1.5 83 -3  1021.8  -0.4  725  291  -0.1         
06 31.03.13 130 (ЮВ) 5{10}  >10 км    10/3 1000 м средняя 
[Sc|Ac und]
+3.2 -0.4 77 +1  1022.2  0.9  725  289  -0.1         
09 31.03.13 120 (ЮВ) >10 км    8/0 средняя 
[Ac trans]
+10.3 +2.7 59 +9  1020.8  725  281           
12 31.03.13 120 (ЮВ) >10 км    8/0 верхняя 
[Ci fib]
+14.7 +3.4 47 +14  1019.4  -0.5  725  277           
15 31.03.13 130 (ЮВ) >10 км    6/0 верхняя 
[Ci fib]
+10.7 +3.6 61 +10  1020.6  0.4  725  281    +15       
18 31.03.13 140 (ЮВ) >10 км    9/0 верхняя 
[Ci fib]
+7.4 +2.7 72 +5  1021.3  0.1  725  284           
21 31.03.13 140 (ЮВ) >10 км    4/0 верхняя 
[Ci fib]
+6.6 +2.5 75 +4  1020.4  -1.1  725  285           
00 01.04.13 120 (ЮВ) >10 км    3/0 верхняя 
[Ci fib]
+5.2 +2.2 81 +5  1019.3  -1.3  724  286           
03 01.04.13 140 (ЮВ) >10 км    3/0 верхняя 
[Ci fib]
+6.5 +2.2 74 +4  1018.3  -0.7  723  284  +5.2        влажная 
06 01.04.13 120 (ЮВ) >10 км    ясно 
+11.1 +1.7 52 +10  1017.3  0.1  723  280           
09 01.04.13 110 (В) 10-13{13}  >10 км    ясно 
+19.2 -0.4 27 +19  1014.6  -1.2  722  272           
Время (UTC), дата Ветер
(°,м/с) 
Видим.   Явления Облачность Т
(°С)
Тd
(°С)
f(%) Тe
(°С)
Pmin
(гПа)
dP
(гПа)
Po
(мм)
O2
(г/м3)
Тmin Tmax R s Состояние
почвы